,,,PA_Meas_PMT16A,,PR_Meas_QMR101_102,,RH_Meas_QMH101,,SR_Meas_QMS101,,TA_Meas_QMH101,,GenWind,,GenWind,
date,time,status,PA,status,PR,status,RH,status,SR,status,TA,status,DirAvg,status,SpdAvg,
2011-07-03, 00:00:04,VALID,1002.67,VALID,0,INVALID,163.67,VALID,0,VALID,25.2397,VALID,170,VALID,0,
2011-07-03, 00:01:04,VALID,1002.63,VALID,0,INVALID,163.647,VALID,0,VALID,25.3779,VALID,170,VALID,0,
2011-07-03, 00:02:04,VALID,1002.6,VALID,0,INVALID,163.662,VALID,0,VALID,25.4149,VALID,170,VALID,0,
2011-07-03, 00:03:04,VALID,1002.61,VALID,0,INVALID,163.639,VALID,0,VALID,25.4948,VALID,170,VALID,0,
2011-07-03, 00:04:04,VALID,1002.56,VALID,0,INVALID,163.639,VALID,0,VALID,25.5513,VALID,176,VALID,0,
2011-07-03, 00:05:04,VALID,1002.54,VALID,0,INVALID,163.624,VALID,0,VALID,25.6292,VALID,176,VALID,0,
2011-07-03, 00:06:04,VALID,1002.54,VALID,0,INVALID,163.647,VALID,0,VALID,25.6876,VALID,176,VALID,0,
2011-07-03, 00:07:04,VALID,1002.51,VALID,0,INVALID,163.639,VALID,0,VALID,25.7265,VALID,172,VALID,0,
2011-07-03, 00:08:04,VALID,1002.51,VALID,0,INVALID,163.594,VALID,0,VALID,25.8044,VALID,228,VALID,0,
2011-07-03, 00:09:04,VALID,1002.49,VALID,0,INVALID,163.624,VALID,0,VALID,25.9797,VALID,192,VALID,0,
2011-07-03, 00:10:04,VALID,1002.5,VALID,0,INVALID,163.594,VALID,0,VALID,26.0966,VALID,205,VALID,0,
2011-07-03, 00:11:04,VALID,1002.46,VALID,0,INVALID,163.609,VALID,0,VALID,26.1765,VALID,205,VALID,0,
2011-07-03, 00:12:04,VALID,1002.46,VALID,0,INVALID,163.578,VALID,0,VALID,26.194,VALID,293,VALID,0,
2011-07-03, 00:13:04,VALID,1002.46,VALID,0,INVALID,163.609,VALID,0,VALID,26.2524,VALID,212,VALID,0,
2011-07-03, 00:14:04,VALID,1002.47,VALID,0,INVALID,163.609,VALID,0,VALID,26.3478,VALID,224,VALID,0,
2011-07-03, 00:15:04,VALID,1002.48,VALID,0,INVALID,163.578,VALID,0,VALID,26.4277,VALID,209,VALID,0,
2011-07-03, 00:16:04,VALID,1002.45,VALID,0,INVALID,163.586,VALID,0,VALID,26.4472,VALID,255,VALID,0,
2011-07-03, 00:17:04,VALID,1002.48,VALID,0,INVALID,163.571,VALID,0,VALID,26.4881,VALID,258,VALID,0,
2011-07-03, 00:18:04,VALID,1002.47,VALID,0,INVALID,163.578,VALID,0,VALID,26.4667,VALID,258,VALID,0,
2011-07-03, 00:19:04,VALID,1002.49,VALID,0,INVALID,163.586,VALID,0,VALID,26.4667,VALID,258,VALID,0,
2011-07-03, 00:20:04,VALID,1002.5,VALID,0,INVALID,163.578,VALID,0,VALID,26.4472,VALID,235,VALID,0,
2011-07-03, 00:21:04,VALID,1002.49,VALID,0,INVALID,163.601,VALID,0,VALID,26.4277,VALID,235,VALID,0,
2011-07-03, 00:22:04,VALID,1002.48,VALID,0,INVALID,163.571,VALID,0,VALID,26.4277,VALID,240,VALID,0,
2011-07-03, 00:23:04,VALID,1002.48,VALID,0,INVALID,163.601,VALID,0,VALID,26.4277,VALID,217,VALID,0,
2011-07-03, 00:24:04,VALID,1002.49,VALID,0,INVALID,163.578,VALID,0,VALID,26.4277,VALID,214,VALID,0,
2011-07-03, 00:25:04,VALID,1002.45,VALID,0,INVALID,163.578,VALID,0,VALID,26.4082,VALID,214,VALID,0,
2011-07-03, 00:26:04,VALID,1002.41,VALID,0,INVALID,163.594,VALID,0,VALID,26.4297,VALID,209,VALID,0,
2011-07-03, 00:27:04,VALID,1002.4,VALID,0,INVALID,163.556,VALID,0,VALID,26.4472,VALID,227,VALID,0,
2011-07-03, 00:28:04,VALID,1002.4,VALID,0,INVALID,163.556,VALID,0,VALID,26.4277,VALID,227,VALID,0,
2011-07-03, 00:29:04,VALID,1002.43,VALID,0,INVALID,163.586,VALID,0,VALID,26.4277,VALID,227,VALID,0,
2011-07-03, 00:30:04,VALID,1002.41,VALID,0,INVALID,163.586,VALID,0,VALID,26.4492,VALID,210,VALID,0,
2011-07-03, 00:31:04,VALID,1002.39,VALID,0,INVALID,163.586,VALID,0,VALID,26.4297,VALID,210,VALID,0,
2011-07-03, 00:32:04,VALID,1002.39,VALID,0,INVALID,163.578,VALID,0,VALID,26.4082,VALID,210,VALID,0,
2011-07-03, 00:33:04,VALID,1002.38,VALID,0,INVALID,163.578,VALID,0,VALID,26.3693,VALID,206,VALID,0,
2011-07-03, 00:34:04,VALID,1002.4,VALID,0,INVALID,163.594,VALID,0,VALID,26.3693,VALID,275,VALID,0,
2011-07-03, 00:35:04,VALID,1002.34,VALID,0,INVALID,163.586,VALID,0,VALID,26.3907,VALID,191,VALID,0,
2011-07-03, 00:36:04,VALID,1002.34,VALID,0,INVALID,163.601,VALID,0,VALID,26.4492,VALID,179,VALID,0,
2011-07-03, 00:37:04,VALID,1002.31,VALID,0,INVALID,163.578,VALID,0,VALID,26.4452,VALID,172,VALID,0,
2011-07-03, 00:38:04,VALID,1002.31,VALID,0,INVALID,163.609,VALID,0.100563,VALID,26.5076,VALID,194,VALID,0,
2011-07-03, 00:39:04,VALID,1002.3,VALID,0,INVALID,163.586,VALID,0,VALID,26.4861,VALID,201,VALID,0,
2011-07-03, 00:40:04,VALID,1002.31,VALID,0,INVALID,163.601,VALID,0,VALID,26.5271,VALID,235,VALID,0,
2011-07-03, 00:41:04,VALID,1002.31,VALID,0,INVALID,163.556,VALID,0,VALID,26.5251,VALID,235,VALID,0,
2011-07-03, 00:42:04,VALID,1002.3,VALID,0,INVALID,163.586,VALID,0,VALID,26.4861,VALID,235,VALID,0,
2011-07-03, 00:43:04,VALID,1002.24,VALID,0,INVALID,163.563,VALID,0,VALID,26.4667,VALID,235,VALID,0,
2011-07-03, 00:44:04,VALID,1002.21,VALID,0,INVALID,163.594,VALID,0,VALID,26.4277,VALID,250,VALID,0,
2011-07-03, 00:45:04,VALID,1002.2,VALID,0,INVALID,163.586,VALID,0,VALID,26.4297,VALID,260,VALID,0,
2011-07-03, 00:46:04,VALID,1002.2,VALID,0,INVALID,163.563,VALID,0,VALID,26.3693,VALID,222,VALID,0,
2011-07-03, 00:47:04,VALID,1002.15,VALID,0,INVALID,163.571,VALID,0,VALID,26.3693,VALID,200,VALID,0,
2011-07-03, 00:48:04,VALID,1002.18,VALID,0,INVALID,163.594,VALID,0,VALID,26.3478,VALID,205,VALID,0,
2011-07-03, 00:49:04,VALID,1002.16,VALID,0,INVALID,163.586,VALID,0,VALID,26.3907,VALID,240,VALID,0,
2011-07-03, 00:50:04,VALID,1002.18,VALID,0,INVALID,163.594,VALID,0,VALID,26.3693,VALID,212,VALID,0,
2011-07-03, 00:51:04,VALID,1002.2,VALID,0,INVALID,163.578,VALID,0,VALID,26.4102,VALID,197,VALID,0,
2011-07-03, 00:52:04,VALID,1002.15,VALID,0,INVALID,163.578,VALID,0,VALID,26.4082,VALID,236,VALID,0,
2011-07-03, 00:53:04,VALID,1002.15,VALID,0,INVALID,163.578,VALID,0,VALID,26.4082,VALID,251,VALID,0,
2011-07-03, 00:54:04,VALID,1002.15,VALID,0,INVALID,163.571,VALID,0,VALID,26.4297,VALID,200,VALID,0,
2011-07-03, 00:55:04,VALID,1002.13,VALID,0,INVALID,163.578,VALID,0,VALID,26.4492,VALID,201,VALID,0,
2011-07-03, 00:56:04,VALID,1002.11,VALID,0,INVALID,163.578,VALID,0,VALID,26.4881,VALID,238,VALID,0,
2011-07-03, 00:57:04,VALID,1002.11,VALID,0,INVALID,163.54,VALID,0,VALID,26.5446,VALID,185,VALID,0,
2011-07-03, 00:58:04,VALID,1002.09,VALID,0,INVALID,163.563,VALID,0,VALID,26.603,VALID,189,VALID,0,
2011-07-03, 00:59:04,VALID,1002.11,VALID,0,INVALID,163.571,VALID,0,VALID,26.562,VALID,187,VALID,0,
2011-07-03, 01:00:04,VALID,1002.09,VALID,0,INVALID,163.548,VALID,0.100563,VALID,26.642,VALID,196,VALID,0,
2011-07-03, 01:01:04,VALID,1002.06,VALID,0,INVALID,163.548,VALID,0.100563,VALID,26.6614,VALID,191,VALID,0,
2011-07-03, 01:02:04,VALID,1002.06,VALID,0,INVALID,163.556,VALID,0.100563,VALID,26.6614,VALID,251,VALID,0,
2011-07-03, 01:03:04,VALID,1002.06,VALID,0,INVALID,163.586,VALID,0.100563,VALID,26.642,VALID,251,VALID,0,
2011-07-03, 01:04:04,VALID,1002.04,VALID,0,INVALID,163.586,VALID,0.100563,VALID,26.5815,VALID,227,VALID,0,
2011-07-03, 01:05:04,VALID,1002.02,VALID,0,INVALID,163.563,VALID,0.100563,VALID,26.603,VALID,189,VALID,0,
2011-07-03, 01:06:04,VALID,1002.02,VALID,0,INVALID,163.548,VALID,0.100563,VALID,26.6225,VALID,193,VALID,0,
2011-07-03, 01:07:04,VALID,1002.02,VALID,0,INVALID,163.556,VALID,0.100563,VALID,26.6225,VALID,198,VALID,0,
2011-07-03, 01:08:04,VALID,1002.01,VALID,0,INVALID,163.556,VALID,0,VALID,26.601,VALID,189,VALID,0,
2011-07-03, 01:09:04,VALID,1001.99,VALID,0,INVALID,163.563,VALID,0.100563,VALID,26.603,VALID,202,VALID,0,
2011-07-03, 01:10:04,VALID,1001.94,VALID,0,INVALID,163.586,VALID,0.100563,VALID,26.603,VALID,186,VALID,0,
2011-07-03, 01:11:04,VALID,1001.93,VALID,0,INVALID,163.556,VALID,0.100563,VALID,26.6225,VALID,182,VALID,0,
2011-07-03, 01:12:04,VALID,1001.96,VALID,0,INVALID,163.571,VALID,0.100563,VALID,26.6614,VALID,215,VALID,0,
2011-07-03, 01:13:04,VALID,1001.92,VALID,0,INVALID,163.556,VALID,0.100563,VALID,26.6594,VALID,183,VALID,0,
2011-07-03, 01:14:04,VALID,1001.96,VALID,0,INVALID,163.548,VALID,0.100563,VALID,26.7199,VALID,211,VALID,0,
2011-07-03, 01:15:04,VALID,1001.91,VALID,0,INVALID,163.556,VALID,0,VALID,26.7024,VALID,213,VALID,0,
2011-07-03, 01:16:04,VALID,1001.9,VALID,0,INVALID,163.556,VALID,0,VALID,26.7024,VALID,187,VALID,0,
2011-07-03, 01:17:04,VALID,1001.89,VALID,0,INVALID,163.533,VALID,0,VALID,26.7024,VALID,228,VALID,0,
2011-07-03, 01:18:04,VALID,1001.89,VALID,0,INVALID,163.517,VALID,0,VALID,26.683,VALID,179,VALID,0,
2011-07-03, 01:19:04,VALID,1001.89,VALID,0,INVALID,163.556,VALID,0,VALID,26.7024,VALID,182,VALID,0,
2011-07-03, 01:20:04,VALID,1001.83,VALID,0,INVALID,163.54,VALID,0,VALID,26.7219,VALID,243,VALID,0,
2011-07-03, 01:21:04,VALID,1001.87,VALID,0,INVALID,163.556,VALID,0,VALID,26.7629,VALID,204,VALID,0,
2011-07-03, 01:22:04,VALID,1001.87,VALID,0,INVALID,163.556,VALID,0,VALID,26.7609,VALID,225,VALID,0,
2011-07-03, 01:23:04,VALID,1001.86,VALID,0,INVALID,163.525,VALID,0,VALID,26.7804,VALID,179,VALID,0,
2011-07-03, 01:24:04,VALID,1001.84,VALID,0,INVALID,163.51,VALID,0,VALID,26.7609,VALID,234,VALID,0,
2011-07-03, 01:25:04,VALID,1001.83,VALID,0,INVALID,163.533,VALID,0,VALID,26.7609,VALID,224,VALID,0,
2011-07-03, 01:26:04,VALID,1001.8,VALID,0,INVALID,163.556,VALID,0,VALID,26.7609,VALID,189,VALID,0,
2011-07-03, 01:27:04,VALID,1001.8,VALID,0,INVALID,163.54,VALID,0,VALID,26.7414,VALID,186,VALID,0,
2011-07-03, 01:28:04,VALID,1001.76,VALID,0,INVALID,163.548,VALID,0,VALID,26.7024,VALID,204,VALID,0,
2011-07-03, 01:29:04,VALID,1001.78,VALID,0,INVALID,163.548,VALID,0,VALID,26.7219,VALID,252,VALID,0,
2011-07-03, 01:30:04,VALID,1001.8,VALID,0,INVALID,163.548,VALID,0,VALID,26.7414,VALID,181,VALID,0,
2011-07-03, 01:31:04,VALID,1001.78,VALID,0,INVALID,163.548,VALID,0,VALID,26.7414,VALID,178,VALID,0,
2011-07-03, 01:32:04,VALID,1001.8,VALID,0,INVALID,163.563,VALID,0,VALID,26.7219,VALID,229,VALID,0,
2011-07-03, 01:33:04,VALID,1001.76,VALID,0,INVALID,163.556,VALID,0,VALID,26.7414,VALID,192,VALID,0,
2011-07-03, 01:34:04,VALID,1001.77,VALID,0,INVALID,163.556,VALID,0,VALID,26.7219,VALID,173,VALID,0,
2011-07-03, 01:35:04,VALID,1001.79,VALID,0,INVALID,163.548,VALID,0,VALID,26.7219,VALID,180,VALID,0,
2011-07-03, 01:36:04,VALID,1001.81,VALID,0,INVALID,163.548,VALID,0,VALID,26.6809,VALID,185,VALID,0,
2011-07-03, 01:37:04,VALID,1001.81,VALID,0,INVALID,163.548,VALID,0,VALID,26.7219,VALID,177,VALID,0,
2011-07-03, 01:38:04,VALID,1001.76,VALID,0,INVALID,163.54,VALID,0,VALID,26.7024,VALID,177,VALID,0,
2011-07-03, 01:39:04,VALID,1001.8,VALID,0,INVALID,163.571,VALID,0,VALID,26.7024,VALID,217,VALID,0,
2011-07-03, 01:40:04,VALID,1001.77,VALID,0,INVALID,163.54,VALID,0,VALID,26.6614,VALID,222,VALID,0,
2011-07-03, 01:41:04,VALID,1001.76,VALID,0,INVALID,163.556,VALID,0,VALID,26.6635,VALID,221,VALID,0,
2011-07-03, 01:42:04,VALID,1001.76,VALID,0,INVALID,163.563,VALID,0,VALID,26.644,VALID,221,VALID,0,
2011-07-03, 01:43:04,VALID,1001.74,VALID,0,INVALID,163.54,VALID,0,VALID,26.605,VALID,221,VALID,0,
2011-07-03, 01:44:04,VALID,1001.73,VALID,0,INVALID,163.54,VALID,0,VALID,26.5855,VALID,221,VALID,0,
2011-07-03, 01:45:04,VALID,1001.74,VALID,0,INVALID,163.556,VALID,0,VALID,26.603,VALID,177,VALID,0,
2011-07-03, 01:46:04,VALID,1001.73,VALID,0,INVALID,163.578,VALID,0,VALID,26.603,VALID,179,VALID,0,
2011-07-03, 01:47:04,VALID,1001.7,VALID,0,INVALID,163.571,VALID,0.100563,VALID,26.603,VALID,192,VALID,0,
2011-07-03, 01:48:04,VALID,1001.72,VALID,0,INVALID,163.556,VALID,0.100563,VALID,26.642,VALID,143,VALID,0,
2011-07-03, 01:49:04,VALID,1001.68,VALID,0,INVALID,163.556,VALID,0,VALID,26.642,VALID,208,VALID,0,
2011-07-03, 01:50:04,VALID,1001.68,VALID,0,INVALID,163.571,VALID,0.100563,VALID,26.642,VALID,155,VALID,0,
2011-07-03, 01:51:04,VALID,1001.68,VALID,0,INVALID,163.578,VALID,0.100563,VALID,26.6809,VALID,222,VALID,0,
2011-07-03, 01:52:04,VALID,1001.69,VALID,0,INVALID,163.54,VALID,0.100563,VALID,26.7199,VALID,205,VALID,0,
2011-07-03, 01:53:04,VALID,1001.74,VALID,0,INVALID,163.563,VALID,0.100563,VALID,26.7589,VALID,204,VALID,0,
2011-07-03, 01:54:04,VALID,1001.7,VALID,0,INVALID,163.556,VALID,0.100563,VALID,26.7783,VALID,181,VALID,0,
2011-07-03, 01:55:04,VALID,1001.7,VALID,0,INVALID,163.563,VALID,0,VALID,26.7998,VALID,234,VALID,0,
2011-07-03, 01:56:04,VALID,1001.68,VALID,0,INVALID,163.525,VALID,0.100563,VALID,26.8173,VALID,221,VALID,0,
2011-07-03, 01:57:04,VALID,1001.69,VALID,0,INVALID,163.533,VALID,0.100563,VALID,26.8173,VALID,171,VALID,0,
2011-07-03, 01:58:04,VALID,1001.68,VALID,0,INVALID,163.517,VALID,0.100563,VALID,26.8368,VALID,162,VALID,0,
2011-07-03, 01:59:04,VALID,1001.7,VALID,0,INVALID,163.548,VALID,0.100563,VALID,26.8173,VALID,151,VALID,0,
2011-07-03, 02:00:04,VALID,1001.71,VALID,0,INVALID,163.517,VALID,0.100563,VALID,26.8173,VALID,150,VALID,0,
2011-07-03, 02:01:04,VALID,1001.7,VALID,0,INVALID,163.533,VALID,0.100563,VALID,26.8368,VALID,198,VALID,0,
2011-07-03, 02:02:04,VALID,1001.68,VALID,0,INVALID,163.54,VALID,0.100563,VALID,26.8757,VALID,208,VALID,0,
2011-07-03, 02:03:04,VALID,1001.68,VALID,0,INVALID,163.54,VALID,0.100563,VALID,26.8952,VALID,187,VALID,0,
2011-07-03, 02:04:04,VALID,1001.67,VALID,0,INVALID,163.525,VALID,0,VALID,26.8952,VALID,186,VALID,0,
2011-07-03, 02:05:04,VALID,1001.67,VALID,0,INVALID,163.525,VALID,0.100563,VALID,26.9147,VALID,195,VALID,0,
2011-07-03, 02:06:04,VALID,1001.69,VALID,0,INVALID,163.495,VALID,0,VALID,26.8952,VALID,222,VALID,0,
2011-07-03, 02:07:04,VALID,1001.65,VALID,0,INVALID,163.533,VALID,0,VALID,26.8737,VALID,225,VALID,0,
2011-07-03, 02:08:04,VALID,1001.67,VALID,0,INVALID,163.548,VALID,0.100563,VALID,26.9147,VALID,198,VALID,0,
2011-07-03, 02:09:04,VALID,1001.71,VALID,0,INVALID,163.548,VALID,0.100563,VALID,26.8952,VALID,202,VALID,0,
2011-07-03, 02:10:04,VALID,1001.66,VALID,0,INVALID,163.533,VALID,0.100563,VALID,26.8757,VALID,241,VALID,0,
2011-07-03, 02:11:04,VALID,1001.63,VALID,0,INVALID,163.517,VALID,0.100563,VALID,26.8563,VALID,184,VALID,0,
2011-07-03, 02:12:04,VALID,1001.65,VALID,0,INVALID,163.533,VALID,0.100563,VALID,26.8757,VALID,230,VALID,0,
2011-07-03, 02:13:04,VALID,1001.61,VALID,0,INVALID,163.548,VALID,0.100563,VALID,26.8952,VALID,223,VALID,0,
2011-07-03, 02:14:04,VALID,1001.63,VALID,0,INVALID,163.54,VALID,0.100563,VALID,26.8757,VALID,223,VALID,0,
2011-07-03, 02:15:04,VALID,1001.63,VALID,0,INVALID,163.517,VALID,0,VALID,26.8583,VALID,218,VALID,0,
2011-07-03, 02:16:04,VALID,1001.67,VALID,0,INVALID,163.533,VALID,0,VALID,26.8583,VALID,174,VALID,0,
2011-07-03, 02:17:04,VALID,1001.65,VALID,0,INVALID,163.533,VALID,0,VALID,26.8193,VALID,176,VALID,0,
2011-07-03, 02:18:04,VALID,1001.64,VALID,0,INVALID,163.533,VALID,0,VALID,26.8193,VALID,200,VALID,0,
2011-07-03, 02:19:04,VALID,1001.63,VALID,0,INVALID,163.556,VALID,0,VALID,26.8193,VALID,182,VALID,0,
2011-07-03, 02:20:04,VALID,1001.59,VALID,0,INVALID,163.556,VALID,0,VALID,26.7998,VALID,196,VALID,0,
2011-07-03, 02:21:04,VALID,1001.61,VALID,0,INVALID,163.533,VALID,0,VALID,26.8778,VALID,198,VALID,0,
2011-07-03, 02:22:04,VALID,1001.58,VALID,0,INVALID,163.548,VALID,0,VALID,26.8993,VALID,208,VALID,0,
2011-07-03, 02:23:04,VALID,1001.54,VALID,0,INVALID,163.556,VALID,0,VALID,26.9167,VALID,171,VALID,0,
2011-07-03, 02:24:04,VALID,1001.56,VALID,0,INVALID,163.563,VALID,0,VALID,26.9167,VALID,158,VALID,0,
2011-07-03, 02:25:04,VALID,1001.57,VALID,0,INVALID,163.548,VALID,0,VALID,26.9362,VALID,199,VALID,0,
2011-07-03, 02:26:04,VALID,1001.55,VALID,0,INVALID,163.548,VALID,0,VALID,26.9557,VALID,153,VALID,0,
2011-07-03, 02:27:04,VALID,1001.5,VALID,0,INVALID,163.525,VALID,0,VALID,26.9362,VALID,162,VALID,0,
2011-07-03, 02:28:04,VALID,1001.51,VALID,0,INVALID,163.533,VALID,0,VALID,26.9578,VALID,199,VALID,0,
2011-07-03, 02:29:04,VALID,1001.48,VALID,0,INVALID,163.54,VALID,0,VALID,26.9167,VALID,178,VALID,0,
2011-07-03, 02:30:04,VALID,1001.48,VALID,0,INVALID,163.548,VALID,0,VALID,26.9167,VALID,215,VALID,0,
2011-07-03, 02:31:04,VALID,1001.5,VALID,0,INVALID,163.548,VALID,0,VALID,26.9383,VALID,226,VALID,0,
2011-07-03, 02:32:04,VALID,1001.47,VALID,0,INVALID,163.525,VALID,0,VALID,26.9188,VALID,201,VALID,0,
2011-07-03, 02:33:04,VALID,1001.48,VALID,0,INVALID,163.525,VALID,0,VALID,26.9167,VALID,206,VALID,0,
2011-07-03, 02:34:04,VALID,1001.49,VALID,0,INVALID,163.556,VALID,0,VALID,26.9167,VALID,195,VALID,0,
2011-07-03, 02:35:04,VALID,1001.47,VALID,0,INVALID,163.556,VALID,0,VALID,26.9188,VALID,205,VALID,0,
2011-07-03, 02:36:04,VALID,1001.48,VALID,0,INVALID,163.556,VALID,0,VALID,26.9167,VALID,180,VALID,0,
2011-07-03, 02:37:04,VALID,1001.46,VALID,0,INVALID,163.54,VALID,0,VALID,26.9362,VALID,184,VALID,0,
2011-07-03, 02:38:04,VALID,1001.43,VALID,0,INVALID,163.54,VALID,0,VALID,26.9167,VALID,188,VALID,0,
2011-07-03, 02:39:04,VALID,1001.45,VALID,0,INVALID,163.548,VALID,0,VALID,26.8973,VALID,207,VALID,0,
2011-07-03, 02:40:04,VALID,1001.44,VALID,0,INVALID,163.563,VALID,0,VALID,26.8952,VALID,207,VALID,0,
2011-07-03, 02:41:04,VALID,1001.44,VALID,0,INVALID,163.533,VALID,0,VALID,26.8973,VALID,189,VALID,0,
2011-07-03, 02:42:04,VALID,1001.38,VALID,0,INVALID,163.556,VALID,0,VALID,26.8757,VALID,170,VALID,0,
2011-07-03, 02:43:04,VALID,1001.42,VALID,0,INVALID,163.563,VALID,0,VALID,26.8563,VALID,170,VALID,0,
2011-07-03, 02:44:04,VALID,1001.4,VALID,0,INVALID,163.533,VALID,0,VALID,26.8173,VALID,191,VALID,0,
2011-07-03, 02:45:04,VALID,1001.38,VALID,0,INVALID,163.563,VALID,0,VALID,26.8173,VALID,206,VALID,0,
2011-07-03, 02:46:04,VALID,1001.38,VALID,0,INVALID,163.563,VALID,0.100563,VALID,26.8173,VALID,179,VALID,0,
2011-07-03, 02:47:04,VALID,1001.35,VALID,0,INVALID,163.556,VALID,0,VALID,26.8368,VALID,192,VALID,0,
2011-07-03, 02:48:04,VALID,1001.35,VALID,0,INVALID,163.571,VALID,0.100563,VALID,26.8563,VALID,191,VALID,0,
2011-07-03, 02:49:04,VALID,1001.34,VALID,0,INVALID,163.571,VALID,0,VALID,26.8153,VALID,232,VALID,0,
2011-07-03, 02:50:04,VALID,1001.32,VALID,0,INVALID,163.578,VALID,0,VALID,26.8368,VALID,247,VALID,0,
2011-07-03, 02:51:04,VALID,1001.33,VALID,0,INVALID,163.533,VALID,0,VALID,26.8778,VALID,204,VALID,0,
2011-07-03, 02:52:04,VALID,1001.3,VALID,0,INVALID,163.517,VALID,0,VALID,26.8952,VALID,191,VALID,0,
2011-07-03, 02:53:04,VALID,1001.35,VALID,0,INVALID,163.563,VALID,0,VALID,26.9147,VALID,190,VALID,0,
2011-07-03, 02:54:04,VALID,1001.36,VALID,0,INVALID,163.54,VALID,0,VALID,26.8952,VALID,228,VALID,0,
2011-07-03, 02:55:04,VALID,1001.36,VALID,0,INVALID,163.556,VALID,0,VALID,26.9147,VALID,181,VALID,0,
2011-07-03, 02:56:04,VALID,1001.37,VALID,0,INVALID,163.51,VALID,0,VALID,26.9342,VALID,166,VALID,0,
2011-07-03, 02:57:04,VALID,1001.36,VALID,0,INVALID,163.479,VALID,0,VALID,26.9732,VALID,190,VALID,0,
2011-07-03, 02:58:04,VALID,1001.35,VALID,0,INVALID,163.548,VALID,0,VALID,26.9926,VALID,179,VALID,0,
2011-07-03, 02:59:04,VALID,1001.36,VALID,0,INVALID,163.548,VALID,0,VALID,26.9732,VALID,118,VALID,0,
2011-07-03, 03:00:04,VALID,1001.36,VALID,0,INVALID,163.54,VALID,0,VALID,26.9342,VALID,118,VALID,0,
2011-07-03, 03:01:04,VALID,1001.36,VALID,0,INVALID,163.548,VALID,0.100563,VALID,26.9342,VALID,146,VALID,0,
2011-07-03, 03:02:04,VALID,1001.35,VALID,0,INVALID,163.525,VALID,0,VALID,26.9752,VALID,183,VALID,0,
2011-07-03, 03:03:04,VALID,1001.36,VALID,0,INVALID,163.517,VALID,0,VALID,26.9926,VALID,168,VALID,0,
2011-07-03, 03:04:04,VALID,1001.36,VALID,0,INVALID,163.525,VALID,0,VALID,26.9926,VALID,233,VALID,0,
2011-07-03, 03:05:04,VALID,1001.36,VALID,0,INVALID,163.517,VALID,0,VALID,26.9732,VALID,226,VALID,0,
2011-07-03, 03:06:04,VALID,1001.35,VALID,0,INVALID,163.571,VALID,0,VALID,26.9537,VALID,217,VALID,0,
2011-07-03, 03:07:04,VALID,1001.33,VALID,0,INVALID,163.517,VALID,0.100563,VALID,26.9342,VALID,211,VALID,0,
2011-07-03, 03:08:04,VALID,1001.3,VALID,0,INVALID,163.556,VALID,0,VALID,26.9557,VALID,146,VALID,0,
2011-07-03, 03:09:04,VALID,1001.34,VALID,0,INVALID,163.533,VALID,0.100563,VALID,26.9362,VALID,204,VALID,0,
2011-07-03, 03:10:04,VALID,1001.35,VALID,0,INVALID,163.54,VALID,0,VALID,26.9537,VALID,169,VALID,0,
2011-07-03, 03:11:04,VALID,1001.36,VALID,0,INVALID,163.556,VALID,0,VALID,26.9537,VALID,174,VALID,0,
2011-07-03, 03:12:04,VALID,1001.35,VALID,0,INVALID,163.525,VALID,0,VALID,26.9537,VALID,184,VALID,0,
2011-07-03, 03:13:04,VALID,1001.37,VALID,0,INVALID,163.54,VALID,0,VALID,26.9537,VALID,236,VALID,0,
2011-07-03, 03:14:04,VALID,1001.35,VALID,0,INVALID,163.525,VALID,0,VALID,26.9537,VALID,168,VALID,0,
2011-07-03, 03:15:04,VALID,1001.35,VALID,0,INVALID,163.533,VALID,0,VALID,26.9732,VALID,181,VALID,0,
2011-07-03, 03:16:04,VALID,1001.32,VALID,0,INVALID,163.54,VALID,0,VALID,26.9947,VALID,205,VALID,0,
2011-07-03, 03:17:04,VALID,1001.34,VALID,0,INVALID,163.556,VALID,0,VALID,26.9926,VALID,185,VALID,0,
2011-07-03, 03:18:04,VALID,1001.35,VALID,0,INVALID,163.563,VALID,0,VALID,27.0142,VALID,216,VALID,0,
2011-07-03, 03:19:04,VALID,1001.37,VALID,0,INVALID,163.533,VALID,0,VALID,27.0121,VALID,179,VALID,0,
2011-07-03, 03:20:04,VALID,1001.35,VALID,0,INVALID,163.556,VALID,0,VALID,27.0336,VALID,199,VALID,0,
2011-07-03, 03:21:04,VALID,1001.34,VALID,0,INVALID,163.525,VALID,0,VALID,27.0121,VALID,231,VALID,0,
2011-07-03, 03:22:04,VALID,1001.35,VALID,0,INVALID,163.548,VALID,0,VALID,27.0511,VALID,203,VALID,0,
2011-07-03, 03:23:04,VALID,1001.33,VALID,0,INVALID,163.54,VALID,0,VALID,27.0921,VALID,188,VALID,0,
2011-07-03, 03:24:04,VALID,1001.33,VALID,0,INVALID,163.548,VALID,0,VALID,27.0706,VALID,188,VALID,0,
2011-07-03, 03:25:04,VALID,1001.35,VALID,0,INVALID,163.525,VALID,0,VALID,27.0706,VALID,200,VALID,0,
2011-07-03, 03:26:04,VALID,1001.33,VALID,0,INVALID,163.517,VALID,0,VALID,27.0511,VALID,186,VALID,0,
2011-07-03, 03:27:04,VALID,1001.33,VALID,0,INVALID,163.54,VALID,0,VALID,27.0726,VALID,224,VALID,0,
2011-07-03, 03:28:04,VALID,1001.32,VALID,0,INVALID,163.54,VALID,0,VALID,27.0511,VALID,213,VALID,0,
2011-07-03, 03:29:04,VALID,1001.33,VALID,0,INVALID,163.525,VALID,0,VALID,27.0531,VALID,146,VALID,0,
2011-07-03, 03:30:04,VALID,1001.26,VALID,0,INVALID,163.563,VALID,0,VALID,27.0531,VALID,241,VALID,0,
2011-07-03, 03:31:04,VALID,1001.3,VALID,0,INVALID,163.533,VALID,0,VALID,27.0726,VALID,198,VALID,0,
2011-07-03, 03:32:04,VALID,1001.28,VALID,0,INVALID,163.525,VALID,0,VALID,27.0921,VALID,217,VALID,0,
2011-07-03, 03:33:04,VALID,1001.27,VALID,0,INVALID,163.525,VALID,0,VALID,27.0726,VALID,223,VALID,0,
2011-07-03, 03:34:04,VALID,1001.26,VALID,0,INVALID,163.533,VALID,0,VALID,27.0726,VALID,214,VALID,0,
2011-07-03, 03:35:04,VALID,1001.27,VALID,0,INVALID,163.525,VALID,0,VALID,27.0511,VALID,226,VALID,0,
2011-07-03, 03:36:04,VALID,1001.27,VALID,0,INVALID,163.525,VALID,0,VALID,27.0726,VALID,105,VALID,0,
2011-07-03, 03:37:04,VALID,1001.28,VALID,0,INVALID,163.533,VALID,0,VALID,27.0121,VALID,180,VALID,0,
2011-07-03, 03:38:04,VALID,1001.27,VALID,0,INVALID,163.556,VALID,0,VALID,27.0336,VALID,194,VALID,0,
2011-07-03, 03:39:04,VALID,1001.3,VALID,0,INVALID,163.533,VALID,0,VALID,27.0336,VALID,200,VALID,0,
2011-07-03, 03:40:04,VALID,1001.3,VALID,0,INVALID,163.533,VALID,0,VALID,27.0316,VALID,163,VALID,0,
2011-07-03, 03:41:04,VALID,1001.28,VALID,0,INVALID,163.533,VALID,0,VALID,27.0316,VALID,139,VALID,0,
2011-07-03, 03:42:04,VALID,1001.3,VALID,0,INVALID,163.533,VALID,0,VALID,27.0316,VALID,174,VALID,0,
2011-07-03, 03:43:04,VALID,1001.28,VALID,0,INVALID,163.525,VALID,0,VALID,27.0726,VALID,207,VALID,0,
2011-07-03, 03:44:04,VALID,1001.29,VALID,0,INVALID,163.517,VALID,0,VALID,27.0511,VALID,165,VALID,0,
2011-07-03, 03:45:04,VALID,1001.32,VALID,0,INVALID,163.533,VALID,0,VALID,27.0511,VALID,200,VALID,0,
2011-07-03, 03:46:04,VALID,1001.32,VALID,0,INVALID,163.54,VALID,0,VALID,27.1095,VALID,210,VALID,0,
2011-07-03, 03:47:04,VALID,1001.33,VALID,0,INVALID,163.525,VALID,0,VALID,27.1485,VALID,209,VALID,0,
2011-07-03, 03:48:04,VALID,1001.32,VALID,0,INVALID,163.525,VALID,0.100563,VALID,27.168,VALID,230,VALID,0,
2011-07-03, 03:49:04,VALID,1001.31,VALID,0,INVALID,163.571,VALID,0.100563,VALID,27.1875,VALID,182,VALID,0,
2011-07-03, 03:50:04,VALID,1001.33,VALID,0,INVALID,163.525,VALID,0,VALID,27.1875,VALID,207,VALID,0,
2011-07-03, 03:51:04,VALID,1001.33,VALID,0,INVALID,163.525,VALID,0,VALID,27.1875,VALID,225,VALID,0,
2011-07-03, 03:52:04,VALID,1001.31,VALID,0,INVALID,163.51,VALID,0,VALID,27.248,VALID,277,VALID,0,